TimeCST,TemperatureF,Dew PointF,Humidity,Sea Level PressureIn,VisibilityMPH,Wind Direction,Wind SpeedMPH,Gust SpeedMPH,PrecipitationIn,Events,Conditions,WindDirDegrees,DateUTC
12:15 AM,29.7,26.4,88,29.88,5.0,NW,13.8,17.3,N/A,,Scattered Clouds,320,2013-02-27 06:15:00
12:35 AM,29.3,26.2,88,29.88,5.0,NW,13.8,-,N/A,,Overcast,310,2013-02-27 06:35:00
12:55 AM,29.1,25.7,87,29.89,5.0,NW,13.8,-,N/A,,Overcast,320,2013-02-27 06:55:00
1:15 AM,29.1,25.5,86,29.89,5.0,NW,15.0,-,N/A,,Overcast,320,2013-02-27 07:15:00
1:35 AM,28.9,25.3,86,29.89,5.0,NW,13.8,17.3,N/A,,Overcast,320,2013-02-27 07:35:00
1:55 AM,28.9,25.5,87,29.89,5.0,NNW,13.8,17.3,N/A,,Overcast,330,2013-02-27 07:55:00
2:15 AM,28.4,25.3,88,29.87,4.0,NW,15.0,-,N/A,,Overcast,310,2013-02-27 08:15:00
2:35 AM,28.0,24.8,88,29.87,4.0,NW,15.0,-,N/A,,Overcast,310,2013-02-27 08:35:00
2:55 AM,27.5,24.8,90,29.87,4.0,NW,16.1,-,N/A,,Overcast,320,2013-02-27 08:55:00
3:15 AM,27.5,24.4,88,29.87,5.0,NW,18.4,21.9,N/A,,Overcast,320,2013-02-27 09:15:00
3:35 AM,27.5,24.3,88,29.86,5.0,NW,18.4,21.9,N/A,,Overcast,320,2013-02-27 09:35:00
3:55 AM,27.3,24.3,88,29.87,5.0,NW,18.4,24.2,N/A,,Overcast,320,2013-02-27 09:55:00
4:15 AM,27.3,24.3,88,29.87,5.0,NW,18.4,-,N/A,,Overcast,320,2013-02-27 10:15:00
4:35 AM,27.1,24.1,88,29.87,4.0,NW,20.7,26.5,N/A,,Overcast,320,2013-02-27 10:35:00
4:55 AM,27.0,23.9,88,29.88,4.0,NW,17.3,-,N/A,,Overcast,320,2013-02-27 10:55:00
5:15 AM,27.0,23.9,88,29.89,5.0,NNW,16.1,21.9,N/A,,Overcast,330,2013-02-27 11:15:00
5:35 AM,26.6,23.7,89,29.89,5.0,NW,18.4,25.3,N/A,,Overcast,320,2013-02-27 11:35:00
6:15 AM,26.4,23.2,88,29.90,5.0,NW,15.0,23.0,N/A,,Overcast,320,2013-02-27 12:15:00
6:35 AM,26.4,23.0,87,29.90,5.0,NW,15.0,-,N/A,,Overcast,320,2013-02-27 12:35:00
6:55 AM,26.1,23.0,88,29.91,5.0,NW,17.3,-,N/A,,Overcast,320,2013-02-27 12:55:00
7:15 AM,25.7,22.6,88,29.91,4.0,NW,16.1,-,N/A,,Overcast,320,2013-02-27 13:15:00
7:35 AM,25.7,22.5,88,29.91,4.0,NW,16.1,21.9,N/A,,Overcast,320,2013-02-27 13:35:00
7:55 AM,25.7,22.1,86,29.92,4.0,NW,17.3,-,N/A,,Overcast,310,2013-02-27 13:55:00
8:15 AM,25.7,21.9,86,29.92,4.0,NW,16.1,-,N/A,,Overcast,310,2013-02-27 14:15:00
8:35 AM,25.7,21.7,85,29.93,5.0,NW,16.1,-,N/A,,Mostly Cloudy,310,2013-02-27 14:35:00
8:55 AM,25.7,21.2,83,29.93,5.0,NW,17.3,21.9,N/A,,Haze,310,2013-02-27 14:55:00
9:15 AM,26.2,21.0,81,29.94,7.0,NW,19.6,24.2,N/A,,Overcast,320,2013-02-27 15:15:00
9:35 AM,26.6,21.0,79,29.94,7.0,NW,17.3,23.0,N/A,,Overcast,310,2013-02-27 15:35:00
9:55 AM,27.3,20.8,77,29.94,10.0,NW,13.8,-,N/A,,Overcast,310,2013-02-27 15:55:00
10:15 AM,28.0,21.2,76,29.95,10.0,NNW,17.3,25.3,N/A,,Overcast,330,2013-02-27 16:15:00
10:35 AM,28.9,21.7,74,29.95,10.0,NW,15.0,23.0,N/A,,Overcast,320,2013-02-27 16:35:00
10:55 AM,29.3,21.4,72,29.95,10.0,NW,18.4,26.5,N/A,,Overcast,310,2013-02-27 16:55:00
11:15 AM,30.2,22.1,72,29.95,10.0,NW,17.3,-,N/A,,Overcast,320,2013-02-27 17:15:00
11:35 AM,30.9,22.1,70,29.95,10.0,NNW,18.4,25.3,N/A,,Mostly Cloudy,330,2013-02-27 17:35:00
11:55 AM,31.6,22.1,68,29.95,10.0,NW,21.9,28.8,N/A,,Mostly Cloudy,320,2013-02-27 17:55:00
12:15 PM,32.0,22.5,68,29.96,10.0,NNW,19.6,25.3,N/A,,Overcast,330,2013-02-27 18:15:00
12:35 PM,32.4,23.2,69,29.95,10.0,NW,19.6,25.3,N/A,,Overcast,320,2013-02-27 18:35:00
12:55 PM,32.9,23.7,69,29.96,10.0,NW,16.1,-,N/A,,Mostly Cloudy,320,2013-02-27 18:55:00
1:15 PM,33.8,23.5,66,29.95,10.0,NW,21.9,27.6,N/A,,Scattered Clouds,320,2013-02-27 19:15:00
1:35 PM,34.2,23.9,66,29.95,10.0,NW,19.6,29.9,N/A,,Scattered Clouds,320,2013-02-27 19:35:00
1:55 PM,35.1,24.4,65,29.96,10.0,NW,19.6,-,N/A,,Scattered Clouds,320,2013-02-27 19:55:00
2:35 PM,36.0,23.7,61,29.96,10.0,NW,21.9,28.8,N/A,,Clear,320,2013-02-27 20:35:00
2:55 PM,36.5,23.9,60,29.97,10.0,NNW,23.0,31.1,N/A,,Clear,330,2013-02-27 20:55:00
3:15 PM,37.2,24.8,61,29.97,10.0,NW,20.7,27.6,N/A,,Clear,320,2013-02-27 21:15:00
3:35 PM,37.4,25.3,62,29.97,10.0,NW,21.9,29.9,N/A,,Clear,320,2013-02-27 21:35:00
3:55 PM,36.5,25.0,63,29.97,10.0,NW,24.2,28.8,N/A,,Clear,320,2013-02-27 21:55:00
4:15 PM,36.5,24.6,62,29.97,10.0,NW,28.8,34.5,N/A,,Clear,320,2013-02-27 22:15:00
4:35 PM,36.3,24.4,62,29.98,10.0,NW,21.9,32.2,N/A,,Clear,320,2013-02-27 22:35:00
4:55 PM,36.1,24.1,62,29.99,10.0,NW,21.9,32.2,N/A,,Clear,320,2013-02-27 22:55:00
5:15 PM,35.8,23.7,62,29.99,10.0,NW,23.0,31.1,N/A,,Clear,320,2013-02-27 23:15:00
5:35 PM,35.6,23.5,62,30.00,10.0,NW,25.3,31.1,N/A,,Clear,320,2013-02-27 23:35:00
5:55 PM,34.9,24.8,67,30.01,10.0,NW,17.3,-,N/A,,Clear,310,2013-02-27 23:55:00
6:15 PM,34.0,24.8,69,30.01,10.0,NW,17.3,-,N/A,,Clear,310,2013-02-28 00:15:00
6:35 PM,33.4,24.8,71,30.02,10.0,NW,18.4,21.9,N/A,,Clear,310,2013-02-28 00:35:00
6:55 PM,33.4,24.4,70,30.03,10.0,NW,18.4,24.2,N/A,,Clear,320,2013-02-28 00:55:00
7:15 PM,33.1,24.8,72,30.03,10.0,NW,15.0,-,N/A,,Clear,320,2013-02-28 01:15:00
7:35 PM,32.9,25.3,74,30.04,10.0,NW,13.8,-,N/A,,Clear,310,2013-02-28 01:35:00
8:15 PM,32.9,26.6,78,30.04,10.0,NW,20.7,29.9,N/A,,Clear,310,2013-02-28 02:15:00
8:35 PM,32.4,26.8,80,30.04,10.0,NW,17.3,24.2,N/A,,Clear,320,2013-02-28 02:35:00
8:55 PM,32.0,26.6,80,30.05,10.0,NW,13.8,-,N/A,,Scattered Clouds,320,2013-02-28 02:55:00
9:15 PM,31.5,26.4,82,30.05,10.0,NW,13.8,-,N/A,,Scattered Clouds,320,2013-02-28 03:15:00
9:35 PM,31.6,26.4,81,30.05,10.0,NW,23.0,29.9,N/A,,Scattered Clouds,320,2013-02-28 03:35:00
9:55 PM,32.0,26.6,80,30.05,10.0,NW,20.7,28.8,N/A,,Mostly Cloudy,320,2013-02-28 03:55:00
10:15 PM,32.0,26.6,80,30.06,10.0,NNW,23.0,29.9,N/A,,Overcast,330,2013-02-28 04:15:00
10:35 PM,32.0,26.6,80,30.06,7.0,NW,24.2,29.9,N/A,,Overcast,320,2013-02-28 04:35:00
10:55 PM,32.0,26.4,80,30.06,10.0,NNW,23.0,27.6,N/A,,Overcast,330,2013-02-28 04:55:00
11:15 PM,31.1,25.2,79,30.06,10.0,NW,21.9,31.1,N/A,,Overcast,320,2013-02-28 05:15:00
11:35 PM,30.4,25.2,81,30.07,10.0,NW,19.6,27.6,N/A,,Overcast,320,2013-02-28 05:35:00